Time,TemperatureF,DewpointF,PressureIn,WindDirection,WindDirectionDegrees,WindSpeedMPH,WindSpeedGustMPH,Humidity,HourlyPrecipIn,Conditions,Clouds,dailyrainin,SoftwareType,DateUTC
2013-08-26 00:00:00,65.8,50.6,30.13,North,-999,0.0,0.0,58,0.00,,,-99.99,WeatherLink 5.5,2013-08-26 04:00:00,
2013-08-26 00:05:00,65.7,51.0,30.13,North,-999,0.0,0.0,59,0.00,,,-99.99,WeatherLink 5.5,2013-08-26 04:05:00,
2013-08-26 00:10:00,65.7,51.4,30.13,North,-999,0.0,0.0,60,0.00,,,-99.99,WeatherLink 5.5,2013-08-26 04:10:00,
2013-08-26 00:15:00,65.7,51.4,30.13,North,-999,0.0,0.0,60,0.00,,,-99.99,WeatherLink 5.5,2013-08-26 04:15:00,
2013-08-26 00:20:00,65.5,51.2,30.13,North,-999,0.0,0.0,60,0.00,,,-99.99,WeatherLink 5.5,2013-08-26 04:20:00,
2013-08-26 00:25:00,65.5,51.2,30.13,North,-999,0.0,0.0,60,0.00,,,-99.99,WeatherLink 5.5,2013-08-26 04:25:00,
2013-08-26 00:30:00,65.5,51.2,30.13,North,-999,0.0,0.0,60,0.00,,,-99.99,WeatherLink 5.5,2013-08-26 04:30:00,
2013-08-26 00:35:00,65.3,51.1,30.13,ESE,112,0.0,1.0,60,0.00,,,-99.99,WeatherLink 5.5,2013-08-26 04:35:00,
2013-08-26 00:40:00,65.3,51.1,30.13,North,-999,0.0,0.0,60,0.00,,,-99.99,WeatherLink 5.5,2013-08-26 04:40:00,
2013-08-26 00:45:00,65.3,51.1,30.13,North,-999,0.0,0.0,60,0.00,,,-99.99,WeatherLink 5.5,2013-08-26 04:45:00,
2013-08-26 00:50:00,65.3,51.1,30.12,ESE,112,0.0,1.0,60,0.00,,,-99.99,WeatherLink 5.5,2013-08-26 04:50:00,
2013-08-26 00:55:00,65.3,51.1,30.12,North,-999,0.0,0.0,60,0.00,,,-99.99,WeatherLink 5.5,2013-08-26 04:55:00,
2013-08-26 01:00:00,65.3,51.1,30.12,North,-999,0.0,0.0,60,0.00,,,-99.99,WeatherLink 5.5,2013-08-26 05:00:00,
2013-08-26 01:05:00,65.3,51.1,30.12,North,-999,0.0,0.0,60,0.00,,,-99.99,WeatherLink 5.5,2013-08-26 05:05:00,
2013-08-26 01:10:00,65.3,51.1,30.12,North,-999,0.0,0.0,60,0.00,,,-99.99,WeatherLink 5.5,2013-08-26 05:10:00,
2013-08-26 01:15:00,65.3,51.1,30.12,North,-999,0.0,0.0,60,0.00,,,-99.99,WeatherLink 5.5,2013-08-26 05:15:00,
2013-08-26 01:20:00,65.5,51.2,30.12,ESE,112,0.0,1.0,60,0.00,,,-99.99,WeatherLink 5.5,2013-08-26 05:20:00,
2013-08-26 01:25:00,65.5,51.2,30.12,North,-999,0.0,0.0,60,0.00,,,-99.99,WeatherLink 5.5,2013-08-26 05:25:00,
2013-08-26 01:30:00,65.5,51.2,30.12,North,-999,0.0,0.0,60,0.00,,,-99.99,WeatherLink 5.5,2013-08-26 05:30:00,
2013-08-26 01:35:00,65.5,51.2,30.12,North,-999,0.0,0.0,60,0.00,,,-99.99,WeatherLink 5.5,2013-08-26 05:35:00,
2013-08-26 01:40:00,65.5,51.2,30.12,North,-999,0.0,0.0,60,0.00,,,-99.99,WeatherLink 5.5,2013-08-26 05:40:00,
2013-08-26 01:45:00,65.5,51.2,30.12,North,-999,0.0,0.0,60,0.00,,,-99.99,WeatherLink 5.5,2013-08-26 05:45:00,
2013-08-26 01:50:00,65.5,51.2,30.11,North,-999,0.0,0.0,60,0.00,,,-99.99,WeatherLink 5.5,2013-08-26 05:50:00,
2013-08-26 01:55:00,65.3,51.1,30.11,North,-999,0.0,0.0,60,0.00,,,-99.99,WeatherLink 5.5,2013-08-26 05:55:00,
2013-08-26 02:00:00,65.3,51.1,30.11,North,-999,0.0,0.0,60,0.00,,,-99.99,WeatherLink 5.5,2013-08-26 06:00:00,
2013-08-26 02:05:00,65.3,51.1,30.11,North,-999,0.0,0.0,60,0.00,,,-99.99,WeatherLink 5.5,2013-08-26 06:05:00,
2013-08-26 02:10:00,65.3,51.5,30.11,North,-999,0.0,0.0,61,0.00,,,-99.99,WeatherLink 5.5,2013-08-26 06:10:00,
2013-08-26 02:15:00,65.3,51.5,30.11,North,-999,0.0,0.0,61,0.00,,,-99.99,WeatherLink 5.5,2013-08-26 06:15:00,
2013-08-26 02:20:00,65.3,51.5,30.11,North,-999,0.0,0.0,61,0.00,,,-99.99,WeatherLink 5.5,2013-08-26 06:20:00,
2013-08-26 02:25:00,65.5,51.2,30.11,North,-999,0.0,0.0,60,0.00,,,-99.99,WeatherLink 5.5,2013-08-26 06:25:00,
2013-08-26 02:30:00,65.5,51.2,30.11,North,-999,0.0,0.0,60,0.00,,,-99.99,WeatherLink 5.5,2013-08-26 06:30:00,
2013-08-26 02:35:00,65.7,51.4,30.11,North,-999,0.0,0.0,60,0.00,,,-99.99,WeatherLink 5.5,2013-08-26 06:35:00,
2013-08-26 02:40:00,65.8,51.5,30.11,ESE,112,0.0,1.0,60,0.00,,,-99.99,WeatherLink 5.5,2013-08-26 06:40:00,
2013-08-26 02:45:00,65.8,51.5,30.11,ESE,112,0.0,1.0,60,0.00,,,-99.99,WeatherLink 5.5,2013-08-26 06:45:00,
2013-08-26 02:50:00,65.8,51.5,30.10,North,-999,0.0,0.0,60,0.00,,,-99.99,WeatherLink 5.5,2013-08-26 06:50:00,
2013-08-26 02:55:00,65.8,51.5,30.10,North,-999,0.0,0.0,60,0.00,,,-99.99,WeatherLink 5.5,2013-08-26 06:55:00,
2013-08-26 03:00:00,65.8,51.5,30.10,North,-999,0.0,0.0,60,0.00,,,-99.99,WeatherLink 5.5,2013-08-26 07:00:00,
2013-08-26 03:05:00,66.0,51.7,30.10,North,-999,0.0,0.0,60,0.00,,,-99.99,WeatherLink 5.5,2013-08-26 07:05:00,
2013-08-26 03:10:00,66.0,51.7,30.10,North,-999,0.0,0.0,60,0.00,,,-99.99,WeatherLink 5.5,2013-08-26 07:10:00,
2013-08-26 03:15:00,66.0,51.7,30.10,North,-999,0.0,0.0,60,0.00,,,-99.99,WeatherLink 5.5,2013-08-26 07:15:00,
2013-08-26 03:20:00,65.8,51.5,30.10,North,-999,0.0,0.0,60,0.00,,,-99.99,WeatherLink 5.5,2013-08-26 07:20:00,
2013-08-26 03:25:00,-999.0,-99.9,30.10,North,-999,0.0,0.0,60,0.00,,,-99.99,WeatherLink 5.5,2013-08-26 07:25:00,
2013-08-26 03:30:00,-999.0,-99.9,30.10,North,-999,0.0,0.0,60,0.00,,,-99.99,WeatherLink 5.5,2013-08-26 07:30:00,
2013-08-26 03:35:00,66.0,51.7,30.09,North,-999,0.0,0.0,60,0.00,,,-99.99,WeatherLink 5.5,2013-08-26 07:35:00,
2013-08-26 03:40:00,66.0,51.7,30.09,North,-999,0.0,0.0,60,0.00,,,-99.99,WeatherLink 5.5,2013-08-26 07:40:00,
2013-08-26 03:45:00,66.0,51.7,30.09,North,-999,0.0,0.0,60,0.00,,,-99.99,WeatherLink 5.5,2013-08-26 07:45:00,
2013-08-26 03:50:00,66.0,52.2,30.08,North,-999,0.0,0.0,61,0.00,,,-99.99,WeatherLink 5.5,2013-08-26 07:50:00,
2013-08-26 03:55:00,66.0,52.2,30.08,North,-999,0.0,0.0,61,0.00,,,-99.99,WeatherLink 5.5,2013-08-26 07:55:00,
2013-08-26 04:00:00,66.0,52.2,30.08,North,-999,0.0,0.0,61,0.00,,,-99.99,WeatherLink 5.5,2013-08-26 08:00:00,
2013-08-26 04:05:00,66.1,51.8,30.08,North,-999,0.0,0.0,60,0.00,,,-99.99,WeatherLink 5.5,2013-08-26 08:05:00,
2013-08-26 04:10:00,66.1,51.8,30.08,North,-999,0.0,0.0,60,0.00,,,-99.99,WeatherLink 5.5,2013-08-26 08:10:00,
2013-08-26 04:15:00,66.1,51.8,30.08,North,-999,0.0,0.0,60,0.00,,,-99.99,WeatherLink 5.5,2013-08-26 08:15:00,
2013-08-26 04:20:00,66.1,52.7,30.07,ESE,112,0.0,1.0,62,0.00,,,-99.99,WeatherLink 5.5,2013-08-26 08:20:00,
2013-08-26 04:25:00,66.1,52.7,30.07,North,-999,0.0,0.0,62,0.00,,,-99.99,WeatherLink 5.5,2013-08-26 08:25:00,
2013-08-26 04:30:00,66.1,52.7,30.07,North,-999,0.0,0.0,62,0.00,,,-99.99,WeatherLink 5.5,2013-08-26 08:30:00,
2013-08-26 04:35:00,66.0,53.5,30.07,North,-999,0.0,0.0,64,0.00,,,-99.99,WeatherLink 5.5,2013-08-26 08:35:00,
2013-08-26 04:40:00,65.7,53.2,30.07,SE,135,0.0,1.0,64,0.00,,,-99.99,WeatherLink 5.5,2013-08-26 08:40:00,
2013-08-26 04:45:00,65.7,53.2,30.07,SE,135,0.0,1.0,64,0.00,,,-99.99,WeatherLink 5.5,2013-08-26 08:45:00,
2013-08-26 04:50:00,65.3,54.1,30.06,North,-999,0.0,0.0,67,0.00,,,-99.99,WeatherLink 5.5,2013-08-26 08:50:00,
2013-08-26 04:55:00,65.2,54.0,30.06,North,-999,0.0,0.0,67,0.00,,,-99.99,WeatherLink 5.5,2013-08-26 08:55:00,
2013-08-26 05:00:00,65.2,54.0,30.06,North,-999,0.0,0.0,67,0.00,,,-99.99,WeatherLink 5.5,2013-08-26 09:00:00,
2013-08-26 05:05:00,65.0,54.2,30.07,North,-999,0.0,0.0,68,0.00,,,-99.99,WeatherLink 5.5,2013-08-26 09:05:00,
2013-08-26 05:10:00,-999.0,-99.9,30.07,North,-999,0.0,0.0,68,0.00,,,-99.99,WeatherLink 5.5,2013-08-26 09:10:00,
2013-08-26 05:15:00,-999.0,-99.9,30.07,North,-999,0.0,0.0,68,0.00,,,-99.99,WeatherLink 5.5,2013-08-26 09:15:00,
2013-08-26 05:20:00,64.5,54.9,30.07,North,-999,0.0,0.0,71,0.00,,,-99.99,WeatherLink 5.5,2013-08-26 09:20:00,
2013-08-26 05:25:00,64.2,55.4,30.07,North,-999,0.0,0.0,73,0.01,,,-99.99,WeatherLink 5.5,2013-08-26 09:25:00,
2013-08-26 05:30:00,64.2,55.4,30.07,North,-999,0.0,0.0,73,0.01,,,-99.99,WeatherLink 5.5,2013-08-26 09:30:00,
2013-08-26 05:35:00,63.7,55.6,30.07,SW,225,0.0,1.0,75,0.01,,,-99.99,WeatherLink 5.5,2013-08-26 09:35:00,
2013-08-26 05:40:00,63.6,55.5,30.07,North,-999,0.0,0.0,75,0.02,,,-99.99,WeatherLink 5.5,2013-08-26 09:40:00,
2013-08-26 05:45:00,63.6,55.5,30.07,North,-999,0.0,0.0,75,0.02,,,-99.99,WeatherLink 5.5,2013-08-26 09:45:00,
2013-08-26 05:50:00,63.2,55.9,30.07,North,-999,0.0,0.0,77,0.03,,,-99.99,WeatherLink 5.5,2013-08-26 09:50:00,
2013-08-26 05:55:00,-999.0,-99.9,30.07,North,-999,0.0,0.0,77,0.03,,,-99.99,WeatherLink 5.5,2013-08-26 09:55:00,
2013-08-26 06:00:00,-999.0,-99.9,30.07,North,-999,0.0,0.0,77,0.03,,,-99.99,WeatherLink 5.5,2013-08-26 10:00:00,
2013-08-26 06:05:00,62.9,55.6,30.07,North,-999,0.0,0.0,77,0.03,,,-99.99,WeatherLink 5.5,2013-08-26 10:05:00,
2013-08-26 06:10:00,62.4,55.1,30.07,North,-999,0.0,0.0,77,0.03,,,-99.99,WeatherLink 5.5,2013-08-26 10:10:00,
2013-08-26 06:15:00,62.4,55.1,30.07,North,-999,0.0,0.0,77,0.03,,,-99.99,WeatherLink 5.5,2013-08-26 10:15:00,
2013-08-26 06:20:00,62.3,56.0,30.06,North,-999,0.0,0.0,80,0.04,,,-99.99,WeatherLink 5.5,2013-08-26 10:20:00,
2013-08-26 06:25:00,-999.0,-99.9,30.06,North,-999,0.0,0.0,80,0.03,,,-99.99,WeatherLink 5.5,2013-08-26 10:25:00,
2013-08-26 06:30:00,-999.0,-99.9,30.06,North,-999,0.0,0.0,80,0.03,,,-99.99,WeatherLink 5.5,2013-08-26 10:30:00,
2013-08-26 06:35:00,-999.0,-99.9,30.06,North,-999,0.0,0.0,80,0.03,,,-99.99,WeatherLink 5.5,2013-08-26 10:35:00,
2013-08-26 06:40:00,-999.0,-99.9,30.06,North,-999,0.0,0.0,80,0.02,,,-99.99,WeatherLink 5.5,2013-08-26 10:40:00,
2013-08-26 06:45:00,-999.0,-99.9,30.06,North,-999,0.0,0.0,80,0.02,,,-99.99,WeatherLink 5.5,2013-08-26 10:45:00,
2013-08-26 06:50:00,62.1,56.5,30.04,North,-999,0.0,0.0,82,0.01,,,-99.99,WeatherLink 5.5,2013-08-26 10:50:00,
2013-08-26 06:55:00,62.1,56.5,30.04,North,-999,0.0,0.0,82,0.01,,,-99.99,WeatherLink 5.5,2013-08-26 10:55:00,
2013-08-26 07:00:00,62.1,56.5,30.04,North,-999,0.0,0.0,82,0.01,,,-99.99,WeatherLink 5.5,2013-08-26 11:00:00,
2013-08-26 07:05:00,62.1,56.5,30.04,North,-999,0.0,0.0,82,0.01,,,-99.99,WeatherLink 5.5,2013-08-26 11:05:00,
2013-08-26 07:10:00,62.0,56.4,30.04,SW,225,0.0,1.0,82,0.01,,,-99.99,WeatherLink 5.5,2013-08-26 11:10:00,
2013-08-26 07:15:00,62.0,56.4,30.04,SW,225,0.0,1.0,82,0.01,,,-99.99,WeatherLink 5.5,2013-08-26 11:15:00,
2013-08-26 07:20:00,62.0,56.4,30.04,North,-999,0.0,0.0,82,0.00,,,-99.99,WeatherLink 5.5,2013-08-26 11:20:00,
2013-08-26 07:25:00,62.0,56.8,30.04,North,-999,0.0,0.0,83,0.00,,,-99.99,WeatherLink 5.5,2013-08-26 11:25:00,
2013-08-26 07:30:00,62.0,56.8,30.04,North,-999,0.0,0.0,83,0.00,,,-99.99,WeatherLink 5.5,2013-08-26 11:30:00,
2013-08-26 07:35:00,62.0,56.8,30.04,North,-999,0.0,0.0,83,0.00,,,-99.99,WeatherLink 5.5,2013-08-26 11:35:00,
2013-08-26 07:40:00,62.0,57.1,30.04,North,-999,0.0,0.0,84,0.00,,,-99.99,WeatherLink 5.5,2013-08-26 11:40:00,
2013-08-26 07:45:00,62.0,57.1,30.04,North,-999,0.0,0.0,84,0.00,,,-99.99,WeatherLink 5.5,2013-08-26 11:45:00,
2013-08-26 07:50:00,62.0,56.8,30.03,North,-999,0.0,0.0,83,0.00,,,-99.99,WeatherLink 5.5,2013-08-26 11:50:00,
2013-08-26 07:55:00,62.0,56.8,30.03,SW,225,0.0,1.0,83,0.00,,,-99.99,WeatherLink 5.5,2013-08-26 11:55:00,
2013-08-26 08:00:00,62.0,56.8,30.03,SW,225,0.0,1.0,83,0.00,,,-99.99,WeatherLink 5.5,2013-08-26 12:00:00,
2013-08-26 08:05:00,62.0,56.4,30.03,North,-999,0.0,0.0,82,0.00,,,-99.99,WeatherLink 5.5,2013-08-26 12:05:00,
2013-08-26 08:10:00,62.0,56.4,30.03,North,-999,0.0,0.0,82,0.00,,,-99.99,WeatherLink 5.5,2013-08-26 12:10:00,
2013-08-26 08:15:00,62.0,56.4,30.03,North,-999,0.0,0.0,82,0.00,,,-99.99,WeatherLink 5.5,2013-08-26 12:15:00,
2013-08-26 08:20:00,62.1,56.5,30.04,North,-999,0.0,0.0,82,0.01,,,-99.99,WeatherLink 5.5,2013-08-26 12:20:00,
2013-08-26 08:25:00,62.3,56.7,30.04,North,-999,0.0,0.0,82,0.02,,,-99.99,WeatherLink 5.5,2013-08-26 12:25:00,
2013-08-26 08:30:00,62.3,56.7,30.04,North,-999,0.0,0.0,82,0.02,,,-99.99,WeatherLink 5.5,2013-08-26 12:30:00,
2013-08-26 08:35:00,62.4,57.5,30.02,North,-999,0.0,0.0,84,0.03,,,-99.99,WeatherLink 5.5,2013-08-26 12:35:00,
2013-08-26 08:40:00,62.4,57.2,30.02,ESE,112,0.0,1.0,83,0.03,,,-99.99,WeatherLink 5.5,2013-08-26 12:40:00,
2013-08-26 08:45:00,62.4,57.2,30.02,ESE,112,0.0,1.0,83,0.03,,,-99.99,WeatherLink 5.5,2013-08-26 12:45:00,
2013-08-26 08:50:00,62.8,57.2,30.01,SSE,157,0.0,2.0,82,0.03,,,-99.99,WeatherLink 5.5,2013-08-26 12:50:00,
2013-08-26 08:55:00,62.8,57.2,30.01,SE,135,0.0,4.0,82,0.03,,,-99.99,WeatherLink 5.5,2013-08-26 12:55:00,
2013-08-26 09:00:00,62.8,57.2,30.01,SE,135,0.0,4.0,82,0.03,,,-99.99,WeatherLink 5.5,2013-08-26 13:00:00,
2013-08-26 09:05:00,62.8,57.2,30.02,SE,135,0.0,1.0,82,0.03,,,-99.99,WeatherLink 5.5,2013-08-26 13:05:00,
2013-08-26 09:10:00,62.9,57.3,30.02,North,-999,0.0,0.0,82,0.03,,,-99.99,WeatherLink 5.5,2013-08-26 13:10:00,
2013-08-26 09:15:00,62.9,57.3,30.02,North,-999,0.0,0.0,82,0.03,,,-99.99,WeatherLink 5.5,2013-08-26 13:15:00,
2013-08-26 09:20:00,63.6,58.0,30.01,SE,135,1.0,6.0,82,0.02,,,-99.99,WeatherLink 5.5,2013-08-26 13:20:00,
2013-08-26 09:25:00,63.7,58.1,30.01,ESE,112,1.0,4.0,82,0.01,,,-99.99,WeatherLink 5.5,2013-08-26 13:25:00,
2013-08-26 09:30:00,63.7,58.1,30.01,ESE,112,1.0,4.0,82,0.01,,,-99.99,WeatherLink 5.5,2013-08-26 13:30:00,
2013-08-26 09:35:00,64.4,58.4,30.00,East,90,1.0,4.0,81,0.00,,,-99.99,WeatherLink 5.5,2013-08-26 13:35:00,
2013-08-26 09:40:00,65.0,59.0,30.00,SSE,157,0.0,2.0,81,0.00,,,-99.99,WeatherLink 5.5,2013-08-26 13:40:00,
2013-08-26 09:45:00,65.0,59.0,30.00,SSE,157,0.0,2.0,81,0.00,,,-99.99,WeatherLink 5.5,2013-08-26 13:45:00,
2013-08-26 09:50:00,66.0,58.6,30.00,SE,135,1.0,6.0,77,0.00,,,-99.99,WeatherLink 5.5,2013-08-26 13:50:00,
2013-08-26 09:55:00,66.6,58.8,30.00,SE,135,0.0,4.0,76,0.00,,,-99.99,WeatherLink 5.5,2013-08-26 13:55:00,
2013-08-26 10:00:00,66.6,58.8,30.00,SE,135,0.0,4.0,76,0.00,,,-99.99,WeatherLink 5.5,2013-08-26 14:00:00,
2013-08-26 10:05:00,67.5,58.5,29.99,SE,135,0.0,2.0,73,0.00,,,-99.99,WeatherLink 5.5,2013-08-26 14:05:00,
2013-08-26 10:10:00,67.6,58.2,29.99,SE,135,1.0,7.0,72,0.00,,,-99.99,WeatherLink 5.5,2013-08-26 14:10:00,
2013-08-26 10:15:00,67.6,58.2,29.99,SE,135,1.0,7.0,72,0.00,,,-99.99,WeatherLink 5.5,2013-08-26 14:15:00,
2013-08-26 10:20:00,68.3,58.5,29.99,SE,135,1.0,4.0,71,0.00,,,-99.99,WeatherLink 5.5,2013-08-26 14:20:00,
2013-08-26 10:25:00,68.6,58.0,29.99,SE,135,1.0,7.0,69,0.00,,,-99.99,WeatherLink 5.5,2013-08-26 14:25:00,
2013-08-26 10:30:00,68.6,58.0,29.99,SE,135,1.0,7.0,69,0.00,,,-99.99,WeatherLink 5.5,2013-08-26 14:30:00,
2013-08-26 10:35:00,70.1,59.5,29.98,SSE,157,0.0,6.0,69,0.00,,,-99.99,WeatherLink 5.5,2013-08-26 14:35:00,
2013-08-26 10:40:00,71.0,59.5,29.98,SSE,157,0.0,2.0,67,0.00,,,-99.99,WeatherLink 5.5,2013-08-26 14:40:00,
2013-08-26 10:45:00,71.0,59.5,29.98,SSE,157,0.0,2.0,67,0.00,,,-99.99,WeatherLink 5.5,2013-08-26 14:45:00,
2013-08-26 10:50:00,72.4,59.1,29.98,SSE,157,0.0,4.0,63,0.00,,,-99.99,WeatherLink 5.5,2013-08-26 14:50:00,
2013-08-26 10:55:00,72.9,58.2,29.98,ESE,112,3.0,9.0,60,0.00,,,-99.99,WeatherLink 5.5,2013-08-26 14:55:00,
2013-08-26 11:00:00,72.9,58.2,29.98,ESE,112,3.0,9.0,60,0.00,,,-99.99,WeatherLink 5.5,2013-08-26 15:00:00,
2013-08-26 11:05:00,73.9,58.2,29.97,SE,135,2.0,8.0,58,0.00,,,-99.99,WeatherLink 5.5,2013-08-26 15:05:00,
2013-08-26 11:10:00,74.3,59.0,29.97,SE,135,3.0,9.0,59,0.00,,,-99.99,WeatherLink 5.5,2013-08-26 15:10:00,
2013-08-26 11:15:00,74.3,59.0,29.97,SE,135,3.0,9.0,59,0.00,,,-99.99,WeatherLink 5.5,2013-08-26 15:15:00,
2013-08-26 11:20:00,75.5,59.7,29.96,SE,135,0.0,2.0,58,0.00,,,-99.99,WeatherLink 5.5,2013-08-26 15:20:00,
2013-08-26 11:25:00,75.8,59.0,29.96,SE,135,2.0,9.0,56,0.00,,,-99.99,WeatherLink 5.5,2013-08-26 15:25:00,
2013-08-26 11:30:00,75.8,59.0,29.96,SE,135,2.0,9.0,56,0.00,,,-99.99,WeatherLink 5.5,2013-08-26 15:30:00,
2013-08-26 11:35:00,77.3,59.9,29.96,WSW,247,1.0,8.0,55,0.00,,,-99.99,WeatherLink 5.5,2013-08-26 15:35:00,
2013-08-26 11:40:00,77.4,60.5,29.96,SE,135,1.0,7.0,56,0.00,,,-99.99,WeatherLink 5.5,2013-08-26 15:40:00,
2013-08-26 11:45:00,77.4,60.5,29.96,SE,135,1.0,7.0,56,0.00,,,-99.99,WeatherLink 5.5,2013-08-26 15:45:00,
2013-08-26 11:50:00,78.3,59.8,29.95,WSW,247,1.0,6.0,53,0.00,,,-99.99,WeatherLink 5.5,2013-08-26 15:50:00,
2013-08-26 11:55:00,78.7,58.5,29.95,SE,135,2.0,10.0,50,0.00,,,-99.99,WeatherLink 5.5,2013-08-26 15:55:00,
2013-08-26 12:00:00,78.7,58.5,29.95,SE,135,2.0,10.0,50,0.00,,,-99.99,WeatherLink 5.5,2013-08-26 16:00:00,
2013-08-26 12:05:00,79.3,60.1,29.95,SE,135,1.0,9.0,52,0.00,,,-99.99,WeatherLink 5.5,2013-08-26 16:05:00,
2013-08-26 12:10:00,79.5,59.8,29.95,SW,225,3.0,10.0,51,0.00,,,-99.99,WeatherLink 5.5,2013-08-26 16:10:00,
2013-08-26 12:15:00,79.5,59.8,29.95,SW,225,3.0,10.0,51,0.00,,,-99.99,WeatherLink 5.5,2013-08-26 16:15:00,
2013-08-26 12:20:00,79.3,59.0,29.94,WSW,247,2.0,10.0,50,0.00,,,-99.99,WeatherLink 5.5,2013-08-26 16:20:00,
2013-08-26 12:25:00,79.3,59.0,29.94,WSW,247,4.0,11.0,50,0.00,,,-99.99,WeatherLink 5.5,2013-08-26 16:25:00,
2013-08-26 12:30:00,79.3,59.0,29.94,WSW,247,4.0,11.0,50,0.00,,,-99.99,WeatherLink 5.5,2013-08-26 16:30:00,
2013-08-26 12:35:00,80.2,59.9,29.93,SSE,157,1.0,9.0,50,0.00,,,-99.99,WeatherLink 5.5,2013-08-26 16:35:00,
2013-08-26 12:40:00,80.6,59.7,29.93,ESE,112,1.0,10.0,49,0.00,,,-99.99,WeatherLink 5.5,2013-08-26 16:40:00,
2013-08-26 12:45:00,80.6,59.7,29.93,ESE,112,1.0,10.0,49,0.00,,,-99.99,WeatherLink 5.5,2013-08-26 16:45:00,
2013-08-26 12:50:00,79.6,59.3,29.93,West,270,1.0,7.0,50,0.00,,,-99.99,WeatherLink 5.5,2013-08-26 16:50:00,
2013-08-26 12:55:00,79.6,59.3,29.93,WSW,247,1.0,7.0,50,0.00,,,-99.99,WeatherLink 5.5,2013-08-26 16:55:00,
2013-08-26 13:00:00,79.6,59.3,29.93,WSW,247,1.0,7.0,50,0.00,,,-99.99,WeatherLink 5.5,2013-08-26 17:00:00,
2013-08-26 13:05:00,79.6,59.3,29.92,SE,135,1.0,8.0,50,0.00,,,-99.99,WeatherLink 5.5,2013-08-26 17:05:00,
2013-08-26 13:10:00,79.6,59.9,29.92,SW,225,2.0,8.0,51,0.00,,,-99.99,WeatherLink 5.5,2013-08-26 17:10:00,
2013-08-26 13:15:00,79.6,59.9,29.92,SW,225,2.0,8.0,51,0.00,,,-99.99,WeatherLink 5.5,2013-08-26 17:15:00,
2013-08-26 13:20:00,79.6,60.4,29.92,SE,135,1.0,6.0,52,0.00,,,-99.99,WeatherLink 5.5,2013-08-26 17:20:00,
2013-08-26 13:25:00,79.8,60.6,29.92,East,90,1.0,9.0,52,0.00,,,-99.99,WeatherLink 5.5,2013-08-26 17:25:00,
2013-08-26 13:30:00,79.8,60.6,29.92,East,90,1.0,9.0,52,0.00,,,-99.99,WeatherLink 5.5,2013-08-26 17:30:00,
2013-08-26 13:35:00,79.5,59.8,29.91,SE,135,2.0,10.0,51,0.00,,,-99.99,WeatherLink 5.5,2013-08-26 17:35:00,
2013-08-26 13:40:00,79.1,60.5,29.91,ESE,112,1.0,6.0,53,0.00,,,-99.99,WeatherLink 5.5,2013-08-26 17:40:00,
2013-08-26 13:45:00,79.1,60.5,29.91,ESE,112,1.0,6.0,53,0.00,,,-99.99,WeatherLink 5.5,2013-08-26 17:45:00,
2013-08-26 13:50:00,78.3,60.3,29.91,WSW,247,1.0,6.0,54,0.00,,,-99.99,WeatherLink 5.5,2013-08-26 17:50:00,
2013-08-26 13:55:00,78.0,60.0,29.91,SE,135,3.0,7.0,54,0.00,,,-99.99,WeatherLink 5.5,2013-08-26 17:55:00,
2013-08-26 14:00:00,78.0,60.0,29.91,SE,135,3.0,7.0,54,0.00,,,-99.99,WeatherLink 5.5,2013-08-26 18:00:00,
2013-08-26 14:05:00,78.5,60.5,29.90,SSE,157,1.0,6.0,54,0.00,,,-99.99,WeatherLink 5.5,2013-08-26 18:05:00,
2013-08-26 14:10:00,78.9,60.8,29.90,SW,225,1.0,7.0,54,0.00,,,-99.99,WeatherLink 5.5,2013-08-26 18:10:00,
2013-08-26 14:15:00,78.9,60.8,29.90,SW,225,1.0,7.0,54,0.00,,,-99.99,WeatherLink 5.5,2013-08-26 18:15:00,
2013-08-26 14:20:00,78.5,59.9,29.90,SE,135,2.0,7.0,53,0.00,,,-99.99,WeatherLink 5.5,2013-08-26 18:20:00,
2013-08-26 14:25:00,78.3,59.8,29.90,SSW,202,1.0,10.0,53,0.00,,,-99.99,WeatherLink 5.5,2013-08-26 18:25:00,
2013-08-26 14:30:00,78.3,59.8,29.90,SSW,202,1.0,10.0,53,0.00,,,-99.99,WeatherLink 5.5,2013-08-26 18:30:00,
2013-08-26 14:35:00,78.3,60.3,29.89,SE,135,1.0,7.0,54,0.00,,,-99.99,WeatherLink 5.5,2013-08-26 18:35:00,
2013-08-26 14:40:00,78.2,60.2,29.89,South,180,1.0,10.0,54,0.00,,,-99.99,WeatherLink 5.5,2013-08-26 18:40:00,
2013-08-26 14:45:00,78.2,60.2,29.89,South,180,1.0,10.0,54,0.00,,,-99.99,WeatherLink 5.5,2013-08-26 18:45:00,
2013-08-26 14:50:00,77.8,60.8,29.89,SE,135,1.0,6.0,56,0.00,,,-99.99,WeatherLink 5.5,2013-08-26 18:50:00,
2013-08-26 14:55:00,77.8,59.8,29.89,WSW,247,2.0,6.0,54,0.00,,,-99.99,WeatherLink 5.5,2013-08-26 18:55:00,
2013-08-26 15:00:00,77.8,59.8,29.89,WSW,247,2.0,6.0,54,0.00,,,-99.99,WeatherLink 5.5,2013-08-26 19:00:00,
2013-08-26 15:05:00,77.6,60.7,29.89,North,-999,0.0,0.0,56,0.00,,,-99.99,WeatherLink 5.5,2013-08-26 19:05:00,
2013-08-26 15:10:00,77.6,59.6,29.89,WSW,247,0.0,4.0,54,0.00,,,-99.99,WeatherLink 5.5,2013-08-26 19:10:00,
2013-08-26 15:15:00,77.6,59.6,29.89,WSW,247,0.0,4.0,54,0.00,,,-99.99,WeatherLink 5.5,2013-08-26 19:15:00,
2013-08-26 15:20:00,77.8,60.3,29.89,North,-999,0.0,0.0,55,0.00,,,-99.99,WeatherLink 5.5,2013-08-26 19:20:00,
2013-08-26 15:25:00,77.8,61.3,29.89,North,-999,0.0,0.0,57,0.00,,,-99.99,WeatherLink 5.5,2013-08-26 19:25:00,
2013-08-26 15:30:00,77.8,61.3,29.89,North,-999,0.0,0.0,57,0.00,,,-99.99,WeatherLink 5.5,2013-08-26 19:30:00,
2013-08-26 15:35:00,78.2,60.7,29.88,North,-999,0.0,0.0,55,0.00,,,-99.99,WeatherLink 5.5,2013-08-26 19:35:00,
2013-08-26 15:40:00,78.2,61.2,29.88,North,-999,0.0,0.0,56,0.00,,,-99.99,WeatherLink 5.5,2013-08-26 19:40:00,
2013-08-26 15:45:00,78.2,61.2,29.88,North,-999,0.0,0.0,56,0.00,,,-99.99,WeatherLink 5.5,2013-08-26 19:45:00,
2013-08-26 15:50:00,78.5,60.5,29.88,North,-999,0.0,0.0,54,0.00,,,-99.99,WeatherLink 5.5,2013-08-26 19:50:00,
2013-08-26 15:55:00,78.5,61.5,29.88,North,-999,0.0,0.0,56,0.00,,,-99.99,WeatherLink 5.5,2013-08-26 19:55:00,
2013-08-26 16:00:00,78.5,61.5,29.88,North,-999,0.0,0.0,56,0.00,,,-99.99,WeatherLink 5.5,2013-08-26 20:00:00,
2013-08-26 16:05:00,78.3,61.8,29.87,WSW,247,0.0,1.0,57,0.00,,,-99.99,WeatherLink 5.5,2013-08-26 20:05:00,
2013-08-26 16:10:00,78.3,61.8,29.87,WSW,247,1.0,6.0,57,0.00,,,-99.99,WeatherLink 5.5,2013-08-26 20:10:00,
2013-08-26 16:15:00,78.3,61.8,29.87,WSW,247,1.0,6.0,57,0.00,,,-99.99,WeatherLink 5.5,2013-08-26 20:15:00,
2013-08-26 16:20:00,78.5,61.5,29.87,WSW,247,1.0,6.0,56,0.00,,,-99.99,WeatherLink 5.5,2013-08-26 20:20:00,
2013-08-26 16:25:00,78.3,60.8,29.87,WSW,247,1.0,6.0,55,0.00,,,-99.99,WeatherLink 5.5,2013-08-26 20:25:00,
2013-08-26 16:30:00,78.3,60.8,29.87,WSW,247,1.0,6.0,55,0.00,,,-99.99,WeatherLink 5.5,2013-08-26 20:30:00,
2013-08-26 16:35:00,78.0,61.5,29.87,North,-999,0.0,0.0,57,0.00,,,-99.99,WeatherLink 5.5,2013-08-26 20:35:00,
2013-08-26 16:40:00,77.8,61.3,29.87,WSW,247,0.0,1.0,57,0.00,,,-99.99,WeatherLink 5.5,2013-08-26 20:40:00,
2013-08-26 16:45:00,77.8,61.3,29.87,WSW,247,0.0,1.0,57,0.00,,,-99.99,WeatherLink 5.5,2013-08-26 20:45:00,
2013-08-26 16:50:00,77.6,62.1,29.87,North,-999,0.0,0.0,59,0.00,,,-99.99,WeatherLink 5.5,2013-08-26 20:50:00,
2013-08-26 16:55:00,77.4,62.4,29.87,WSW,247,0.0,1.0,60,0.00,,,-99.99,WeatherLink 5.5,2013-08-26 20:55:00,
2013-08-26 17:00:00,77.4,62.4,29.87,WSW,247,0.0,1.0,60,0.00,,,-99.99,WeatherLink 5.5,2013-08-26 21:00:00,
2013-08-26 17:05:00,77.1,62.1,29.86,WSW,247,0.0,1.0,60,0.00,,,-99.99,WeatherLink 5.5,2013-08-26 21:05:00,
2013-08-26 17:10:00,77.1,62.1,29.86,WSW,247,0.0,1.0,60,0.00,,,-99.99,WeatherLink 5.5,2013-08-26 21:10:00,
2013-08-26 17:15:00,77.1,62.1,29.86,WSW,247,0.0,1.0,60,0.00,,,-99.99,WeatherLink 5.5,2013-08-26 21:15:00,
2013-08-26 17:20:00,77.4,62.4,29.86,North,-999,0.0,0.0,60,0.00,,,-99.99,WeatherLink 5.5,2013-08-26 21:20:00,
2013-08-26 17:25:00,77.4,62.9,29.86,North,-999,0.0,0.0,61,0.00,,,-99.99,WeatherLink 5.5,2013-08-26 21:25:00,
2013-08-26 17:30:00,77.4,62.9,29.86,North,-999,0.0,0.0,61,0.00,,,-99.99,WeatherLink 5.5,2013-08-26 21:30:00,
2013-08-26 17:35:00,77.4,61.9,29.85,North,-999,0.0,0.0,59,0.00,,,-99.99,WeatherLink 5.5,2013-08-26 21:35:00,
2013-08-26 17:40:00,77.3,62.3,29.85,WSW,247,0.0,1.0,60,0.00,,,-99.99,WeatherLink 5.5,2013-08-26 21:40:00,
2013-08-26 17:45:00,77.3,62.3,29.85,WSW,247,0.0,1.0,60,0.00,,,-99.99,WeatherLink 5.5,2013-08-26 21:45:00,
2013-08-26 17:50:00,77.1,62.1,29.85,North,-999,0.0,0.0,60,0.00,,,-99.99,WeatherLink 5.5,2013-08-26 21:50:00,
2013-08-26 17:55:00,76.9,62.0,29.85,WSW,247,0.0,1.0,60,0.00,,,-99.99,WeatherLink 5.5,2013-08-26 21:55:00,
2013-08-26 18:00:00,76.9,62.0,29.85,WSW,247,0.0,1.0,60,0.00,,,-99.99,WeatherLink 5.5,2013-08-26 22:00:00,
2013-08-26 18:05:00,76.7,62.2,29.85,WSW,247,0.0,4.0,61,0.00,,,-99.99,WeatherLink 5.5,2013-08-26 22:05:00,
2013-08-26 18:10:00,76.5,61.6,29.85,WSW,247,1.0,7.0,60,0.00,,,-99.99,WeatherLink 5.5,2013-08-26 22:10:00,
2013-08-26 18:15:00,76.5,61.6,29.85,WSW,247,1.0,7.0,60,0.00,,,-99.99,WeatherLink 5.5,2013-08-26 22:15:00,
2013-08-26 18:20:00,76.4,62.0,29.85,ENE,67,0.0,1.0,61,0.00,,,-99.99,WeatherLink 5.5,2013-08-26 22:20:00,
2013-08-26 18:25:00,76.4,62.4,29.85,North,-999,0.0,0.0,62,0.00,,,-99.99,WeatherLink 5.5,2013-08-26 22:25:00,
2013-08-26 18:30:00,76.4,62.4,29.85,North,-999,0.0,0.0,62,0.00,,,-99.99,WeatherLink 5.5,2013-08-26 22:30:00,
2013-08-26 18:35:00,76.2,61.8,29.85,North,-999,0.0,0.0,61,0.00,,,-99.99,WeatherLink 5.5,2013-08-26 22:35:00,
2013-08-26 18:40:00,76.2,62.2,29.85,North,-999,0.0,0.0,62,0.00,,,-99.99,WeatherLink 5.5,2013-08-26 22:40:00,
2013-08-26 18:45:00,76.2,62.2,29.85,North,-999,0.0,0.0,62,0.00,,,-99.99,WeatherLink 5.5,2013-08-26 22:45:00,
2013-08-26 18:50:00,75.8,62.8,29.85,North,-999,0.0,0.0,64,0.00,,,-99.99,WeatherLink 5.5,2013-08-26 22:50:00,
2013-08-26 18:55:00,75.7,62.7,29.85,SE,135,0.0,1.0,64,0.00,,,-99.99,WeatherLink 5.5,2013-08-26 22:55:00,
2013-08-26 19:00:00,75.7,62.7,29.85,SE,135,0.0,1.0,64,0.00,,,-99.99,WeatherLink 5.5,2013-08-26 23:00:00,
2013-08-26 19:05:00,75.5,62.0,29.85,North,-999,0.0,0.0,63,0.00,,,-99.99,WeatherLink 5.5,2013-08-26 23:05:00,
2013-08-26 19:10:00,75.3,61.8,29.85,SE,135,0.0,1.0,63,0.00,,,-99.99,WeatherLink 5.5,2013-08-26 23:10:00,
2013-08-26 19:15:00,75.3,61.8,29.85,SE,135,0.0,1.0,63,0.00,,,-99.99,WeatherLink 5.5,2013-08-26 23:15:00,
2013-08-26 19:20:00,75.1,62.1,29.85,North,-999,0.0,0.0,64,0.00,,,-99.99,WeatherLink 5.5,2013-08-26 23:20:00,
2013-08-26 19:25:00,75.0,62.0,29.85,North,-999,0.0,0.0,64,0.00,,,-99.99,WeatherLink 5.5,2013-08-26 23:25:00,
2013-08-26 19:30:00,75.0,62.0,29.85,North,-999,0.0,0.0,64,0.00,,,-99.99,WeatherLink 5.5,2013-08-26 23:30:00,
2013-08-26 19:35:00,74.6,62.1,29.84,North,-999,0.0,0.0,65,0.00,,,-99.99,WeatherLink 5.5,2013-08-26 23:35:00,
2013-08-26 19:40:00,74.6,62.1,29.84,North,-999,0.0,0.0,65,0.00,,,-99.99,WeatherLink 5.5,2013-08-26 23:40:00,
2013-08-26 19:45:00,74.6,62.1,29.84,North,-999,0.0,0.0,65,0.00,,,-99.99,WeatherLink 5.5,2013-08-26 23:45:00,
2013-08-26 19:50:00,74.4,62.3,29.85,North,-999,0.0,0.0,66,0.00,,,-99.99,WeatherLink 5.5,2013-08-26 23:50:00,
2013-08-26 19:55:00,74.3,62.2,29.85,North,-999,0.0,0.0,66,0.00,,,-99.99,WeatherLink 5.5,2013-08-26 23:55:00,
2013-08-26 20:00:00,74.3,62.2,29.85,North,-999,0.0,0.0,66,0.00,,,-99.99,WeatherLink 5.5,2013-08-27 00:00:00,
2013-08-26 20:05:00,74.1,62.4,29.85,North,-999,0.0,0.0,67,0.00,,,-99.99,WeatherLink 5.5,2013-08-27 00:05:00,
2013-08-26 20:10:00,73.9,62.2,29.85,North,-999,0.0,0.0,67,0.00,,,-99.99,WeatherLink 5.5,2013-08-27 00:10:00,
2013-08-26 20:15:00,73.9,62.2,29.85,North,-999,0.0,0.0,67,0.00,,,-99.99,WeatherLink 5.5,2013-08-27 00:15:00,
2013-08-26 20:20:00,73.7,62.5,29.85,North,-999,0.0,0.0,68,0.00,,,-99.99,WeatherLink 5.5,2013-08-27 00:20:00,
2013-08-26 20:25:00,73.6,62.4,29.85,North,-999,0.0,0.0,68,0.00,,,-99.99,WeatherLink 5.5,2013-08-27 00:25:00,
2013-08-26 20:30:00,73.6,62.4,29.85,North,-999,0.0,0.0,68,0.00,,,-99.99,WeatherLink 5.5,2013-08-27 00:30:00,
2013-08-26 20:35:00,73.4,62.2,29.85,North,-999,0.0,0.0,68,0.00,,,-99.99,WeatherLink 5.5,2013-08-27 00:35:00,
2013-08-26 20:40:00,73.4,62.2,29.85,North,-999,0.0,0.0,68,0.00,,,-99.99,WeatherLink 5.5,2013-08-27 00:40:00,
2013-08-26 20:45:00,73.4,62.2,29.85,North,-999,0.0,0.0,68,0.00,,,-99.99,WeatherLink 5.5,2013-08-27 00:45:00,
2013-08-26 20:50:00,73.4,62.6,29.85,North,-999,0.0,0.0,69,0.00,,,-99.99,WeatherLink 5.5,2013-08-27 00:50:00,
2013-08-26 20:55:00,73.2,62.4,29.85,North,-999,0.0,0.0,69,0.00,,,-99.99,WeatherLink 5.5,2013-08-27 00:55:00,
2013-08-26 21:00:00,73.2,62.4,29.85,North,-999,0.0,0.0,69,0.00,,,-99.99,WeatherLink 5.5,2013-08-27 01:00:00,
2013-08-26 21:05:00,73.2,62.4,29.85,North,-999,0.0,0.0,69,0.00,,,-99.99,WeatherLink 5.5,2013-08-27 01:05:00,
2013-08-26 21:10:00,73.0,62.6,29.85,North,-999,0.0,0.0,70,0.00,,,-99.99,WeatherLink 5.5,2013-08-27 01:10:00,
2013-08-26 21:15:00,73.0,62.6,29.85,North,-999,0.0,0.0,70,0.00,,,-99.99,WeatherLink 5.5,2013-08-27 01:15:00,
2013-08-26 21:20:00,72.9,62.5,29.85,North,-999,0.0,0.0,70,0.00,,,-99.99,WeatherLink 5.5,2013-08-27 01:20:00,
2013-08-26 21:25:00,72.9,62.5,29.85,North,-999,0.0,0.0,70,0.00,,,-99.99,WeatherLink 5.5,2013-08-27 01:25:00,
2013-08-26 21:30:00,72.9,62.5,29.85,North,-999,0.0,0.0,70,0.00,,,-99.99,WeatherLink 5.5,2013-08-27 01:30:00,
2013-08-26 21:35:00,72.7,62.3,29.85,North,-999,0.0,0.0,70,0.00,,,-99.99,WeatherLink 5.5,2013-08-27 01:35:00,
2013-08-26 21:40:00,72.7,62.8,29.85,North,-999,0.0,0.0,71,0.00,,,-99.99,WeatherLink 5.5,2013-08-27 01:40:00,
2013-08-26 21:45:00,72.7,62.8,29.85,North,-999,0.0,0.0,71,0.00,,,-99.99,WeatherLink 5.5,2013-08-27 01:45:00,
2013-08-26 21:50:00,72.5,62.2,29.85,North,-999,0.0,0.0,70,0.00,,,-99.99,WeatherLink 5.5,2013-08-27 01:50:00,
2013-08-26 21:55:00,72.5,62.2,29.85,North,-999,0.0,0.0,70,0.00,,,-99.99,WeatherLink 5.5,2013-08-27 01:55:00,
2013-08-26 22:00:00,72.5,62.2,29.85,North,-999,0.0,0.0,70,0.00,,,-99.99,WeatherLink 5.5,2013-08-27 02:00:00,
2013-08-26 22:05:00,72.4,62.1,29.85,SE,135,0.0,1.0,70,0.00,,,-99.99,WeatherLink 5.5,2013-08-27 02:05:00,
2013-08-26 22:10:00,72.4,62.5,29.85,North,-999,0.0,0.0,71,0.00,,,-99.99,WeatherLink 5.5,2013-08-27 02:10:00,
2013-08-26 22:15:00,72.4,62.5,29.85,North,-999,0.0,0.0,71,0.00,,,-99.99,WeatherLink 5.5,2013-08-27 02:15:00,
2013-08-26 22:20:00,72.2,62.3,29.85,North,-999,0.0,0.0,71,0.00,,,-99.99,WeatherLink 5.5,2013-08-27 02:20:00,
2013-08-26 22:25:00,72.2,62.3,29.85,North,-999,0.0,0.0,71,0.00,,,-99.99,WeatherLink 5.5,2013-08-27 02:25:00,
2013-08-26 22:30:00,72.2,62.3,29.85,North,-999,0.0,0.0,71,0.00,,,-99.99,WeatherLink 5.5,2013-08-27 02:30:00,
2013-08-26 22:35:00,72.0,62.1,29.85,North,-999,0.0,0.0,71,0.00,,,-99.99,WeatherLink 5.5,2013-08-27 02:35:00,
2013-08-26 22:40:00,72.0,62.1,29.85,North,-999,0.0,0.0,71,0.00,,,-99.99,WeatherLink 5.5,2013-08-27 02:40:00,
2013-08-26 22:45:00,72.0,62.1,29.85,North,-999,0.0,0.0,71,0.00,,,-99.99,WeatherLink 5.5,2013-08-27 02:45:00,
2013-08-26 22:50:00,71.8,61.9,29.84,North,-999,0.0,0.0,71,0.00,,,-99.99,WeatherLink 5.5,2013-08-27 02:50:00,
2013-08-26 22:55:00,71.8,61.9,29.84,North,-999,0.0,0.0,71,0.00,,,-99.99,WeatherLink 5.5,2013-08-27 02:55:00,
2013-08-26 23:00:00,71.8,61.9,29.84,North,-999,0.0,0.0,71,0.00,,,-99.99,WeatherLink 5.5,2013-08-27 03:00:00,
2013-08-26 23:05:00,71.8,61.5,29.84,North,-999,0.0,0.0,70,0.00,,,-99.99,WeatherLink 5.5,2013-08-27 03:05:00,
2013-08-26 23:10:00,71.8,61.9,29.84,North,-999,0.0,0.0,71,0.00,,,-99.99,WeatherLink 5.5,2013-08-27 03:10:00,
2013-08-26 23:15:00,71.8,61.9,29.84,North,-999,0.0,0.0,71,0.00,,,-99.99,WeatherLink 5.5,2013-08-27 03:15:00,
2013-08-26 23:20:00,71.7,61.8,29.83,North,-999,0.0,0.0,71,0.00,,,-99.99,WeatherLink 5.5,2013-08-27 03:20:00,
2013-08-26 23:25:00,71.5,61.6,29.83,North,-999,0.0,0.0,71,0.00,,,-99.99,WeatherLink 5.5,2013-08-27 03:25:00,
2013-08-26 23:30:00,71.5,61.6,29.83,North,-999,0.0,0.0,71,0.00,,,-99.99,WeatherLink 5.5,2013-08-27 03:30:00,
2013-08-26 23:35:00,71.3,61.8,29.82,North,-999,0.0,0.0,72,0.00,,,-99.99,WeatherLink 5.5,2013-08-27 03:35:00,
2013-08-26 23:40:00,71.3,61.8,29.82,North,-999,0.0,0.0,72,0.00,,,-99.99,WeatherLink 5.5,2013-08-27 03:40:00,
2013-08-26 23:45:00,71.3,61.8,29.82,North,-999,0.0,0.0,72,0.00,,,-99.99,WeatherLink 5.5,2013-08-27 03:45:00,
2013-08-26 23:50:00,71.2,62.1,29.82,North,-999,0.0,0.0,73,0.00,,,-99.99,WeatherLink 5.5,2013-08-27 03:50:00,
2013-08-26 23:55:00,71.0,61.9,29.82,North,-999,0.0,0.0,73,0.00,,,-99.99,WeatherLink 5.5,2013-08-27 03:55:00,